Location: Rock Island IL
(41.5000°N, 90.5500°W)
Time: 01:41:21
(UTC-06:00)

Daily predictions for brighter satellites

Satellite Brightness Start Highest point End
(mag) Time Altitude Azimuth Time Altitude Azimuth Time Altitude Azimuth
Cosmos 2369 Rocket 4.1 03:26:32 23° N 03:26:32 23° N 03:28:35 10° NNE
ATLAS 5 CENTAUR R/B 3.6 03:51:29 26° N 03:51:29 26° N 03:54:00 10° NNE
Cosmos 1943 Rocket 3.1 03:56:40 39° N 03:56:40 39° N 04:00:12 10° NNE
CZ-4C R/B 2.3 04:00:42 68° E 04:00:42 68° E 04:06:14 10° NE
IRAS Rocket 4.4 03:54:52 10° NNE 03:59:32 65° NNE 03:59:32 65° NNE
ADEOS II 2.3 03:57:17 10° NNE 04:02:06 68° ENE 04:02:06 68° ENE
Lacrosse 5 3.0 04:04:44 34° N 04:04:44 34° N 04:08:03 10° NE
Okean O Rocket 3.7 04:02:41 10° N 04:03:58 19° N 04:03:58 19° N
Okean 1-7 3.8 04:14:32 48° ESE 04:14:44 49° E 04:18:50 10° NNE
CZ-4B R/B 3.1 04:12:57 10° N 04:18:36 78° WNW 04:18:49 76° W
Cosmos 2221 Rocket 3.6 04:24:45 79° ESE 04:24:48 79° E 04:29:23 10° N
Cosmos 1850 Rocket 4.4 04:28:18 10° NNW 04:33:37 63° ENE 04:38:51 10° SSE
Cosmos 1954 Rocket 4.0 04:38:12 57° WSW 04:38:12 57° WSW 04:43:07 10° S
Lacrosse 5 rocket 2.7 04:40:15 23° N 04:41:27 29° NE 04:44:36 10° E
Cosmos 1606 4.3 04:38:42 10° SSE 04:42:15 36° E 04:45:52 10° NNE
Cosmos 1782 Rocket 4.0 04:37:53 10° NNW 04:45:27 19° S 04:46:43 10° S
USA 234 3.3 04:37:52 10° NE 04:44:25 77° SE 04:48:27 25° SW
Cosmos 1420 Rocket 3.8 04:43:53 41° SSW 04:45:43 76° WNW 04:50:57 10° NNE
Cosmos 2297 Rocket 4.0 04:45:24 10° N 04:50:21 30° NE 04:55:15 10° ESE
Cosmos 1656 Rocket 3.9 04:51:34 41° WSW 04:52:56 49° WNW 04:58:26 10° NNE
GEOS 3 Rocket 3.5 04:48:49 10° SSE 04:53:52 67° WSW 04:57:12 22° NW
CZ-4B R/B 3.8 04:50:22 10° N 04:54:26 83° WNW 04:57:34 18° SSW
SKYMED 2 4.5 04:52:34 10° SSE 04:56:46 50° ENE 05:00:58 10° N
Cosmos 1745 Rocket 3.9 04:51:48 10° N 04:57:58 88° W 05:04:06 10° S
Cosmos 1417 Rocket 4.4 04:52:05 10° SSW 04:58:08 58° W 05:04:12 10° N
Meteor PRIRODA 4.4 04:54:40 10° N 04:57:20 37° NNW 04:57:20 37° NNW
NOAA 6 4.3 04:53:46 10° NNE 04:58:55 68° ESE 05:04:01 10° S
Cosmos 1782 2.8 04:55:40 10° S 04:59:37 82° E 05:03:37 10° N
ATLAS 3B R/B 3.0 04:55:17 10° SSW 05:02:52 80° ESE 05:10:12 10° NE
Meteor 1-14 Rocket 4.4 04:57:41 10° NNW 05:03:13 48° W 05:08:34 10° SSW
Cosmos 1633 4.3 05:00:30 10° N 05:03:50 34° ENE 05:07:07 10° SE
Meteor 2-6 Rocket 4.3 05:02:31 10° S 05:07:52 73° E 05:13:18 10° NNE
Cosmos 2369 Rocket 4.2 05:08:20 11° NW 05:08:20 11° NW 05:09:46 10° NNW
Okean-O 2.7 05:04:27 10° N 05:08:47 55° WNW 05:12:14 16° SSW
Cosmos 2219 3.3 05:04:33 10° NW 05:10:00 49° WSW 05:15:23 10° S
Cosmos 2227 Rocket 2.9 05:05:38 10° NNW 05:11:13 55° ENE 05:16:45 10° SE
Tiangong 1 0.9 05:12:02 55° NW 05:12:26 65° N 05:15:21 10° E
Meteor 2-10 Rocket 4.2 05:12:24 29° W 05:13:10 30° WNW 05:17:39 10° N
Cosmos 1452 Rocket 4.4 05:13:33 26° WNW 05:14:26 27° WNW 05:18:56 10° N
Meteor 1-31 Rocket 3.1 05:12:10 10° N 05:15:49 41° WNW 05:17:23 27° WSW
Okean 2 Rocket 3.5 05:12:45 10° NNW 05:16:48 37° W 05:20:52 10° SSW
Cosmos 1110 Rocket 4.5 05:12:50 10° S 05:17:55 63° ESE 05:23:02 10° NNE
Thor Agena Rocket 3.6 05:13:10 10° S 05:18:14 53° W 05:23:17 10° NNW
Meteor 1-25 Rocket 4.4 05:12:58 10° NNW 05:18:35 51° W 05:24:11 10° SSW
Delta 2 Rocket 4.5 05:16:35 24° SW 05:19:00 42° S 05:23:53 10° ESE
Cosmos 1607 3.8 05:13:21 10° SW 05:19:27 80° WNW 05:25:41 10° NNE
ERS-2 3.9 05:18:56 10° NNW 05:20:38 18° NW 05:20:38 18° NW
Cosmos 1741 Rocket 4.3 05:21:42 10° NNW 05:26:41 45° WSW 05:31:40 10° S
Okean 1 Rocket 4.3 05:23:38 10° N 05:27:53 45° ENE 05:32:04 10° SSE
Cosmos 1140 Rocket 4.5 05:29:02 10° NW 05:33:08 24° W 05:37:13 10° SSW
ATLAS 5 CENTAUR R/B 4.0 05:33:17 10° NW 05:35:08 12° NNW 05:37:02 10° N
Cosmos 2151 Rocket 3.8 05:32:38 10° NNW 05:36:59 49° W 05:41:17 10° SSW
Meteor 2-11 Rocket 4.5 05:33:14 10° SSW 05:39:13 57° W 05:45:17 10° N
Cosmos 1943 Rocket 4.0 05:38:13 11° WNW 05:39:31 12° NW 05:41:26 10° NNW
Cosmos 1697 Rocket 4.3 05:35:18 10° S 05:40:28 38° ESE 05:45:41 10° NE
ADEOS II 3.6 05:38:40 10° NNW 05:41:39 15° WNW 05:43:03 14° WNW
COSMO-SKYMED 1 2.8 05:40:39 10° S 05:44:49 47° W 05:49:01 10° NNW
Lacrosse 5 3.8 05:44:04 10° NW 05:47:19 17° NNW 05:50:33 10° NNE
Meteor 1-11 Rocket 3.8 05:42:39 10° NNW 05:48:37 79° W 05:54:27 10° S
CZ-4C R/B 3.5 05:45:55 13° W 05:49:31 24° NW 05:54:28 10° NNE
Meteor 1-28 Rocket 3.3 05:46:36 10° S 05:50:13 51° W 05:53:54 10° NNW
CZ-4 R/B 2.8 05:54:29 10° NNE 05:58:29 45° E 06:02:23 10° S
ISS -0.6 05:56:07 10° S 05:58:38 20° SE 06:01:09 10° E
Radarsat Rocket 4.4 05:53:32 10° N 06:00:26 53° WNW 06:06:32 10° SW
CSL-04 Rocket 3.7 05:57:55 10° NNE 06:03:21 85° WNW 06:08:49 10° SSW
PAYLOAD A 3.9 05:58:59 10° NNE 06:03:46 89° ESE 06:08:41 10° SSW
COSMOS 2455 2.9 06:06:41 10° SSW 06:12:43 83° WNW 06:18:47 10° NNE
Meteor 1-5 Rocket 4.2 06:08:18 10° N 06:13:50 88° E 06:19:12 10° S
Cosmos 2082 3.9 06:08:25 10° NNW 06:13:55 53° WSW 06:19:21 10° S
Gblst 52 Del rocket 4.5 06:09:08 10° WSW 06:14:53 66° NNW 06:21:27 10° NE
YAOGAN 1 3.9 06:10:53 10° NNE 06:15:04 47° E 06:19:15 10° S
Cosmos 1536 2.9 06:11:28 10° NNW 06:15:25 59° W 06:19:22 10° S
